Regional Weather Roundup
Issued by NWS

Home | Current Version | Previous Version | Text Only | Print | Product List | Glossary Off
Versions: 1 2 3 4 5 6 7 8 9 10 11 12 13 14 15 16 17 18 19 20 21 22 23 24 25 26 27 28 29 30 31 32 33 34 35 36 37 38 39 40 41 42 43 44 45 46 47 48 49 50

000
ASUS43 KLSX 250410
RWRMO

WEATHER SUMMARY FOR MISSOURI
NATIONAL WEATHER SERVICE SPRINGFIELD MO
1100 PM CDT WED AUG 24 2016

NOTE: "FAIR" INDICATES FEW OR NO CLOUDS BELOW 12,000 FEET WITH NO
       SIGNIFICANT WEATHER AND/OR OBSTRUCTIONS TO VISIBILITY.
       CURRENT SKY AND/OR WEATHER CONDITIONS ARE NOT AVAILABLE FOR
       CHILLICOTHE AND FARMINGTON.

MOZ001>031-035>038-043-044-053-054-250500-
...NORTHERN AND WESTERN MISSOURI...

CITY           SKY/WX    TMP DP  RH WIND       PRES   REMARKS
KANSAS CTY INT LGT RAIN  72  68  87 NE3       30.04R
KANSAS C DTWN  CLOUDY    73  71  93 E6        30.02S
LEE`S SUMMIT   LGT RAIN  70  69  97 N7        30.04F
ST JOSEPH      CLOUDY    70  68  93 CALM      30.02S
CHILLICOTHE      N/A     74  72  93 CALM      30.04S
KIRKSVILLE     LGT RAIN  74  73  97 VRB3      30.05R FOG

$$
MOZ066>068-077>081-088>096-101>105-250500-
...SOUTHWEST MISSOURI...

CITY           SKY/WX    TMP DP  RH WIND       PRES   REMARKS
SPRINGFIELD    CLEAR     79  68  69 S13       30.07R
JOPLIN         CLEAR     81  68  64 S14       30.04R
BRANSON        CLEAR     77  68  73 S5        30.11F

$$
MOZ032>034-039>042-045>050-055>058-069>072-250500-
...CENTRAL MISSOURI...

CITY           SKY/WX    TMP DP  RH WIND       PRES   REMARKS
COLUMBIA       PTCLDY    81  75  82 S10       30.01R
JEFFERSON CITY CLEAR     82  75  79 S7        30.00R
ROLLA          CLEAR     78  72  81 S9        30.05S
SEDALIA        CLOUDY    76  67  73 NW28G40   30.07R
WHITEMAN AFB   MOCLDY    69  69 100 N14       30.04R THUNDER
OSAGE BEACH    CLEAR     81  73  76 S12       30.05R

$$
MOZ051-052-059>065-250500-
...EAST CENTRAL MISSOURI...

CITY           SKY/WX    TMP DP  RH WIND       PRES   REMARKS
ST LOUIS INTL  PTCLDY    85  74  69 SW9       30.01F HX  92
SPIRIT OF STL  CLEAR     82  75  79 S9        29.99F
ST CHARLES     MOCLDY    80  76  87 S5        29.98F

$$
MOZ072>076-082>087-097>100-106>115-250500-
...SOUTH CENTRAL AND SOUTHEAST MISSOURI...

CITY           SKY/WX    TMP DP  RH WIND       PRES   REMARKS
CAPE GIRARDEAU CLEAR     80  75  84 S8        30.05F
FARMINGTON     CLEAR     79  76  90 S10       30.07F
POPLAR BLUFF   CLEAR     78  75  90 S6        30.06S
WEST PLAINS    CLEAR     78  70  76 S7        30.12S

$$




USA.gov is the U.S. government's official web portal to all federal, state and local government web resources and services.